Location: Austin, TX
(30.3000°N, 97.7500°W)
Time: 04:14:49
(UTC-06:00)

Daily predictions for brighter satellites

Satellite Brightness Start Highest point End
(mag) Time Altitude Azimuth Time Altitude Azimuth Time Altitude Azimuth
Cosmos 2278 Rocket 3.8 04:14:02 31° E 04:14:02 31° E 04:17:36 10° SE
CZ-3C R/B 4.3 04:08:01 34° SSW 04:13:48 50° SSE 05:48:29 10° E
SL-16 R/B 4.1 04:17:22 23° NE 04:17:22 23° NE 04:19:41 10° NE
USA 215 3.4 04:35:25 10° NE 04:40:47 61° NNE 04:40:47 61° NNE
CZ-3 R/B 3.6 04:31:19 10° SW 04:51:24 39° S 04:57:18 10° ESE
Cosmos 1975 Rocket 4.3 04:56:30 37° SSE 04:56:30 37° SSE 04:59:19 10° SSE
CENTAUR R/B 3.8 04:58:46 26° N 04:58:46 26° N 05:01:52 10° NNE
Cosmos 2112 Rocket 4.3 04:50:57 10° S 04:56:07 64° ESE 05:01:16 10° NNE
Feng Yun 1-1 Rocket 4.1 04:54:58 10° NNE 05:00:34 84° ESE 05:06:01 10° SSW
OAO 2 Rocket 4.5 05:06:14 31° S 05:06:14 31° S 05:09:45 10° SE
Gbstr 26 Del rocket 4.5 05:08:43 28° NNE 05:09:16 29° NE 05:12:56 10° E
DASH 2.8 05:17:00 50° SSE 05:17:00 50° SSE 05:21:31 10° E
Thor Agena Rocket 3.3 05:14:33 10° S 05:19:34 72° WSW 05:20:20 60° NW
Meteor 1-20 Rocket 4.3 05:17:11 10° S 05:22:47 76° E 05:28:20 10° N
Lacrosse 5 2.7 05:24:22 10° SSW 05:29:18 51° ESE 05:34:14 10° NE
COSMO-SKYMED 1 3.9 05:26:40 10° SE 05:30:41 39° ENE 05:34:44 10° N
Meteor 1-14 Rocket 4.5 05:29:14 10° SSW 05:34:38 43° W 05:39:57 10° N
Cosmos 921 Rocket 4.3 05:32:24 10° N 05:36:39 41° ENE 05:40:55 10° SE
Cosmos 2297 3.6 05:36:46 24° NNW 05:40:18 76° WSW 05:45:56 10° SSE
Centaur AC-116 3.9 05:38:51 29° WSW 05:40:31 38° SSW 05:43:10 10° SE
SJ-6F 4.3 05:36:54 10° N 05:40:56 62° WNW 05:44:56 10° SSW
DELTA 2 R/B (1) 3.6 05:42:22 33° NW 05:44:53 74° NNE 05:50:26 10° ESE
Cosmos 2327 Rocket 4.4 05:38:48 10° SSW 05:45:11 72° W 05:51:31 10° N
Cosmos 44 Rocket 3.9 05:42:55 10° SSW 05:48:02 63° ESE 05:53:09 10° NE
Okean 1 3.5 05:46:04 10° N 05:50:07 71° E 05:54:07 10° SSE
Celestis-02/Orion 38 4.5 05:45:14 10° SSE 05:50:20 77° WSW 05:54:48 14° NNW
Cosmos 2074 Rocket 4.0 05:48:01 10° SSW 05:54:08 56° W 06:00:17 10° N
Cosmos 2278 Rocket 3.3 05:55:58 22° W 05:56:08 22° W 06:00:22 10° SSW
Cosmos 1300 Rocket 3.6 05:52:17 10° S 05:56:43 86° E 06:01:09 10° N
USA 32 3.9 05:51:54 10° N 05:57:04 66° W 06:02:14 10° S
SL-16 R/B 3.4 05:59:24 21° NW 05:59:24 21° NW 06:02:52 10° NNW
Cosmos 1602 4.0 05:55:57 10° S 05:59:52 73° E 06:03:48 10° N
CRYOSAT 2 4.3 05:55:48 10° S 06:00:38 74° W 06:05:32 10° N
SKYMED 3 4.5 05:56:19 10° S 06:00:39 85° W 06:04:59 10° NNW
Cosmos 1371 Rocket 4.5 05:57:32 10° N 06:02:48 64° ENE 06:07:59 10° SSE
Ariane Rocket 2.9 05:58:50 10° N 06:03:53 78° WNW 06:08:56 10° SSW
ATLAS CENTAUR Rocket 2.7 05:55:54 17° W 06:04:25 73° S 06:08:28 10° ESE
Cosmos 1812 3.1 06:03:42 17° NNW 06:06:21 42° W 06:10:00 10° SSW
Iridium 2 4.5 06:03:42 10° SW 06:07:03 29° W 06:10:21 10° NNW
GPS 2-05 Rocket1 3.9 06:05:47 23° NW 06:07:17 34° N 06:10:38 10° ENE
Cosmos 2184 Rocket 4.2 06:02:09 10° SSW 06:07:56 43° W 06:13:47 10° N
Cosmos 1346 Rocket 2.6 06:05:43 10° N 06:09:37 82° W 06:13:32 10° S
CZ-4 R/B 2.5 06:14:41 10° NNE 06:18:29 47° E 06:22:14 10° S
SKYMED 2 3.8 06:14:30 10° S 06:18:42 49° W 06:22:54 10° NNW
SWIFT 4.4 06:17:15 10° SW 06:20:25 20° S 06:23:35 10° SE
Cosmos 2154 Rocket 4.0 06:17:00 10° SSW 06:23:12 68° W 06:29:22 10° N
SL-24 R/B 4.5 06:19:20 10° N 06:24:35 59° WNW 06:29:04 10° SSW
Meteor 1-28 Rocket 3.1 06:22:57 10° S 06:26:42 76° WSW 06:30:30 10° NNW
ASTRO E2 4.4 06:23:48 10° SW 06:27:24 31° SSE 06:31:00 10° E
Meteor 2-13 Rocket 4.5 06:22:24 10° SSW 06:28:28 64° W 06:34:36 10° N
Cosmos 1536 2.7 06:24:51 10° S 06:28:49 81° W 06:32:49 10° N
Cosmos 1633 2.8 06:25:27 10° SSW 06:28:57 45° W 06:32:28 10° N
Abrixas rocket 3.1 06:31:10 10° WSW 06:34:14 31° NW 06:37:17 10° NNE
IRS-1A Rocket 4.3 06:34:57 10° N 06:40:37 69° WNW 06:46:23 10° SSW
Helios 1B rocket 3.8 06:39:11 10° SE 06:43:04 42° ENE 06:47:00 10° N
Meteor 2-4 Rocket 3.9 06:39:38 10° N 06:45:10 78° E 06:50:51 10° S
Meteor 1-5 Rocket 4.2 06:44:54 10° S 06:50:22 88° E 06:55:43 10° N
